• în Republica Moldova
  • Lista ţărilor
  • Pe 7 zile
  • Temperatura apei
  • Hartă satelitară
  • Meteo pe hartă
  • Widget-uri
  • user-avatar
    Intrare

    Meteo pe oră la Stahanovo

    Astăzi, 22 Septembrie, Sâmbătă

    Timp Temperatura Precipitaţii Vânt Presiune Umiditate
    00:00 +16°C° 0 mm 2 m/s 744 mmHg 77%
    01:00 +16°C° 0 mm 2 m/s 744 mmHg 78%
    02:00 +16°C° 0 mm 2 m/s 744 mmHg 77%
    03:00 +16°C° 0 mm 2 m/s 744 mmHg 77%
    04:00 +15°C° 0 mm 2 m/s 744 mmHg 78%
    05:00 +15°C° 0 mm 2 m/s 743 mmHg 78%
    06:00 +17°C° 0 mm 3 m/s 743 mmHg 75%
    07:00 +18°C° 0 mm 3 m/s 743 mmHg 71%
    08:00 +19°C° 0 mm 3 m/s 743 mmHg 65%
    09:00 +21°C° 0 mm 4 m/s 743 mmHg 61%
    10:00 +22°C° 0 mm 4 m/s 743 mmHg 57%
    11:00 +25°C° 0 mm 5 m/s 743 mmHg 53%
    12:00 +25°C° 0 mm 5 m/s 742 mmHg 52%
    13:00 +26°C° 0 mm 6 m/s 742 mmHg 51%
    14:00 +26°C° 0 mm 6 m/s 741 mmHg 49%
    15:00 +25°C° 0 mm 5 m/s 741 mmHg 54%
    16:00 +23°C° 0 mm 5 m/s 740 mmHg 59%
    17:00 +22°C° 0 mm 4 m/s 740 mmHg 64%
    18:00 +21°C° 0 mm 4 m/s 739 mmHg 64%
    19:00 +20°C° 0 mm 4 m/s 739 mmHg 64%
    20:00 +20°C° 0 mm 5 m/s 739 mmHg 63%
    21:00 +19°C° 0 mm 5 m/s 738 mmHg 61%
    22:00 +19°C° 0 mm 5 m/s 738 mmHg 59%
    23:00 +19°C° 0 mm 6 m/s 738 mmHg 56%

    Mâine, 23 Septembrie, Duminică

    Timp Temperatura Precipitaţii Vânt Presiune Umiditate
    00:00 +19°C° 0 mm 5 m/s 737 mmHg 56%
    01:00 +17°C° 0 mm 5 m/s 737 mmHg 57%
    02:00 +17°C° 0 mm 5 m/s 737 mmHg 57%
    03:00 +16°C° 0.2 mm 5 m/s 736 mmHg 62%
    04:00 +15°C° 0.2 mm 5 m/s 736 mmHg 67%
    05:00 +15°C° 0.2 mm 4 m/s 736 mmHg 72%
    06:00 +13°C° 0.7 mm 5 m/s 736 mmHg 77%
    07:00 +12°C° 0.7 mm 5 m/s 736 mmHg 82%
    08:00 +10°C° 0.7 mm 6 m/s 736 mmHg 87%
    09:00 +10°C° 0.6 mm 6 m/s 736 mmHg 86%
    10:00 +9°C° 0.6 mm 5 m/s 737 mmHg 85%
    11:00 +9°C° 0.6 mm 5 m/s 737 mmHg 84%
    12:00 +10°C° 0.1 mm 4 m/s 737 mmHg 83%
    13:00 +11°C° 0.1 mm 4 m/s 738 mmHg 81%
    14:00 +11°C° 0.1 mm 4 m/s 738 mmHg 79%
    15:00 +11°C° 0 mm 4 m/s 738 mmHg 80%
    16:00 +11°C° 0 mm 3 m/s 738 mmHg 80%
    17:00 +11°C° 0 mm 3 m/s 738 mmHg 81%
    18:00 +10°C° 0.1 mm 3 m/s 738 mmHg 83%
    19:00 +10°C° 0.1 mm 3 m/s 738 mmHg 86%
    20:00 +9°C° 0.1 mm 3 m/s 738 mmHg 88%
    21:00 +9°C° 0 mm 3 m/s 738 mmHg 89%
    22:00 +8°C° 0 mm 3 m/s 738 mmHg 90%
    23:00 +8°C° 0 mm 3 m/s 738 mmHg 91%

    Poimâine, 24 Septembrie, Luni

    Timp Temperatura Precipitaţii Vânt Presiune Umiditate
    00:00 +8°C° 0 mm 3 m/s 738 mmHg 92%
    01:00 +7°C° 0 mm 3 m/s 738 mmHg 92%
    02:00 +7°C° 0 mm 3 m/s 738 mmHg 93%
    03:00 +7°C° 0 mm 3 m/s 738 mmHg 93%
    04:00 +7°C° 0 mm 3 m/s 738 mmHg 93%
    05:00 +5°C° 0 mm 3 m/s 738 mmHg 93%
    06:00 +8°C° 0 mm 3 m/s 738 mmHg 89%
    07:00 +9°C° 0 mm 3 m/s 738 mmHg 84%
    08:00 +10°C° 0 mm 4 m/s 737 mmHg 79%
    09:00 +11°C° 0.1 mm 4 m/s 737 mmHg 76%
    10:00 +12°C° 0.1 mm 5 m/s 737 mmHg 72%
    11:00 +13°C° 0.1 mm 5 m/s 737 mmHg 69%
    12:00 +11°C° 0.4 mm 6 m/s 736 mmHg 72%
    13:00 +10°C° 0.4 mm 7 m/s 735 mmHg 76%
    14:00 +10°C° 0.4 mm 7 m/s 734 mmHg 79%
    15:00 +9°C° 2.3 mm 8 m/s 733 mmHg 82%
    16:00 +9°C° 2.3 mm 8 m/s 731 mmHg 86%
    17:00 +7°C° 2.3 mm 9 m/s 730 mmHg 89%
    18:00 +8°C° 1.6 mm 9 m/s 728 mmHg 89%
    19:00 +10°C° 1.6 mm 9 m/s 727 mmHg 89%
    20:00 +9°C° 1.6 mm 10 m/s 725 mmHg 89%
    21:00 +9°C° 0.6 mm 10 m/s 724 mmHg 87%
    22:00 +8°C° 0.6 mm 10 m/s 723 mmHg 84%
    23:00 +8°C° 0.6 mm 10 m/s 722 mmHg 81%

    25 Septembrie, Marţi

    Timp Temperatura Precipitaţii Vânt Presiune Umiditate
    00:00 +7°C° 0.1 mm 10 m/s 722 mmHg 81%
    01:00 +7°C° 0.1 mm 11 m/s 723 mmHg 82%
    02:00 +7°C° 0.1 mm 11 m/s 723 mmHg 82%
    03:00 +6°C° 0.1 mm 11 m/s 723 mmHg 82%
    04:00 +6°C° 0.1 mm 11 m/s 724 mmHg 82%
    05:00 +6°C° 0.1 mm 11 m/s 725 mmHg 82%
    06:00 +6°C° 0.1 mm 10 m/s 725 mmHg 82%
    07:00 +6°C° 0.1 mm 10 m/s 726 mmHg 82%
    08:00 +6°C° 0.1 mm 10 m/s 727 mmHg 81%
    09:00 +6°C° 0.2 mm 10 m/s 728 mmHg 80%
    10:00 +6°C° 0.2 mm 10 m/s 729 mmHg 79%
    11:00 +6°C° 0.2 mm 10 m/s 730 mmHg 78%
    12:00 +6°C° 0.4 mm 10 m/s 731 mmHg 79%
    13:00 +5°C° 0.4 mm 9 m/s 732 mmHg 79%
    14:00 +5°C° 0.4 mm 9 m/s 733 mmHg 79%
    15:00 +5°C° 0.6 mm 9 m/s 734 mmHg 81%
    16:00 +5°C° 0.6 mm 8 m/s 735 mmHg 82%
    17:00 +4°C° 0.6 mm 8 m/s 736 mmHg 83%
    18:00 +4°C° 0.4 mm 8 m/s 737 mmHg 83%
    19:00 +4°C° 0.4 mm 7 m/s 737 mmHg 83%
    20:00 +4°C° 0.4 mm 7 m/s 738 mmHg 83%
    21:00 +4°C° 0.1 mm 6 m/s 739 mmHg 83%
    22:00 +4°C° 0.1 mm 6 m/s 739 mmHg 83%
    23:00 +3°C° 0.1 mm 5 m/s 740 mmHg 84%

    26 Septembrie, Miercuri

    Timp Temperatura Precipitaţii Vânt Presiune Umiditate
    00:00 +3°C° 0 mm 5 m/s 741 mmHg 84%
    01:00 +3°C° 0 mm 5 m/s 741 mmHg 85%
    02:00 +2°C° 0 mm 5 m/s 742 mmHg 85%
    03:00 +2°C° 0 mm 5 m/s 743 mmHg 86%
    04:00 +1°C° 0 mm 5 m/s 743 mmHg 86%
    05:00 +1°C° 0 mm 4 m/s 744 mmHg 87%
    06:00 +1°C° 0 mm 4 m/s 744 mmHg 83%
    07:00 +2°C° 0 mm 5 m/s 745 mmHg 79%
    08:00 +2°C° 0 mm 5 m/s 745 mmHg 75%
    09:00 +5°C° 0 mm 5 m/s 745 mmHg 70%
    10:00 +7°C° 0 mm 5 m/s 745 mmHg 66%
    11:00 +8°C° 0 mm 6 m/s 745 mmHg 62%
    12:00 +9°C° 0 mm 6 m/s 745 mmHg 60%
    13:00 +10°C° 0 mm 6 m/s 745 mmHg 58%
    14:00 +10°C° 0 mm 6 m/s 744 mmHg 56%
    15:00 +10°C° 0 mm 6 m/s 744 mmHg 60%
    16:00 +9°C° 0 mm 5 m/s 744 mmHg 64%
    17:00 +8°C° 0 mm 5 m/s 743 mmHg 69%
    18:00 +8°C° 0 mm 5 m/s 743 mmHg 72%
    19:00 +8°C° 0 mm 6 m/s 743 mmHg 75%
    20:00 +8°C° 0 mm 6 m/s 743 mmHg 78%
    21:00 +8°C° 0.1 mm 7 m/s 743 mmHg 80%
    22:00 +8°C° 0.1 mm 7 m/s 742 mmHg 81%
    23:00 +7°C° 0.1 mm 8 m/s 742 mmHg 83%

    27 Septembrie, Joi

    Timp Temperatura Precipitaţii Vânt Presiune Umiditate
    00:00 +6°C° 0.2 mm 8 m/s 741 mmHg 82%
    01:00 +6°C° 0.2 mm 8 m/s 741 mmHg 81%
    02:00 +5°C° 0.2 mm 8 m/s 740 mmHg 80%
    03:00 +5°C° 0 mm 9 m/s 739 mmHg 78%
    04:00 +5°C° 0 mm 9 m/s 739 mmHg 76%
    05:00 +5°C° 0 mm 9 m/s 738 mmHg 75%
    06:00 +5°C° 0 mm 9 m/s 738 mmHg 74%
    07:00 +5°C° 0 mm 9 m/s 737 mmHg 74%
    08:00 +5°C° 0 mm 10 m/s 737 mmHg 73%
    09:00 +6°C° 0.1 mm 10 m/s 737 mmHg 74%
    10:00 +7°C° 0.1 mm 10 m/s 736 mmHg 75%
    11:00 +7°C° 0.1 mm 10 m/s 736 mmHg 76%
    12:00 +7°C° 0.4 mm 10 m/s 735 mmHg 79%
    13:00 +7°C° 0.4 mm 9 m/s 735 mmHg 81%
    14:00 +7°C° 0.4 mm 9 m/s 734 mmHg 84%
    15:00 +7°C° 0.6 mm 9 m/s 734 mmHg 85%
    16:00 +7°C° 0.6 mm 9 m/s 734 mmHg 86%
    17:00 +7°C° 0.6 mm 9 m/s 733 mmHg 86%
    18:00 +7°C° 0.1 mm 9 m/s 733 mmHg 87%
    19:00 +9°C° 0.1 mm 8 m/s 733 mmHg 87%
    20:00 +9°C° 0.1 mm 8 m/s 733 mmHg 87%
    21:00 +9°C° 0.2 mm 7 m/s 733 mmHg 87%
    22:00 +9°C° 0.2 mm 7 m/s 733 mmHg 87%
    23:00 +9°C° 0.2 mm 6 m/s 733 mmHg 87%
    Arată mai mult